[[{"header":{"parameterUnit":"m.s-1","parameterCategory":1,"la1":30.2991,"la2":30.254,"lo1":-89.0895,"lo2":-89.0444,"dy":0.0017,"dx":0.0017,"nx":28,"ny":28,"refTime":"2024-08-08T03:00:00:Z","depth":0,"parameterNumber":2,"parameterNumberName":"U-component_of_WINDS"},"data":[0,0,0,0,0,0,0,0,0,0,0,0,0,0,0,0,0,0,0,0,0,0,0,0,0,0,0,0,0,0,0,0,0,0,0,0,0,0,0,0,0,0,0,0,0,0,0,0,0,0,0,0,0,0,0,0,0,0,1.6249,1.6248,0,1.6203,1.6203,1.6202,1.6211,1.6212,1.6213,1.6214,1.6162,1.616,1.6158,0,0,0,0,0,0,0,0,0,0,0,0,0,1.6337,1.6336,1.6249,1.6248,1.6248,1.6203,1.6203,1.6202,1.6211,1.6212,1.6213,1.6214,1.6163,1.616,1.6158,0,0,0,0,0,0,0,0,0,0,0,0,0,1.6296,1.6335,1.6249,1.6247,1.6246,1.6203,1.6203,1.6202,1.6211,1.6212,1.6213,1.6214,1.6164,1.6161,1.6157,1.6112,0,0,1.6147,1.6146,0,0,0,0,0,0,0,0,1.6298,1.6293,1.6248,1.6247,1.6246,1.6214,1.6215,1.6172,1.621,1.6224,1.6214,1.6215,1.6178,1.6174,1.6162,1.611,1.6108,1.6147,1.6145,1.6144,1.6143,0,0,0,0,0,0,0,1.6301,1.6295,1.6231,1.6247,1.6246,1.6246,1.6242,1.6207,1.6194,1.6223,1.6224,1.6218,1.6178,1.6165,1.6161,1.6107,1.6147,1.6144,1.6142,1.6141,1.6011,1.601,0,0,0,0,0,0,1.6306,1.6297,1.6232,1.6229,1.6276,1.6244,1.6239,1.6223,1.6195,1.6192,1.6217,1.6219,1.617,1.6165,1.6159,1.6102,1.6144,1.6141,1.6139,1.6013,1.6011,1.6009,0,0,0,0,0,0,1.6307,1.63,1.6234,1.6263,1.6255,1.6241,1.6223,1.6222,1.6209,1.6191,1.6188,1.6207,1.6171,1.6164,1.6123,1.61,1.6139,1.6136,1.6015,1.6012,1.601,1.5989,0,0,0,0,0,0,1.631,1.63,1.6284,1.6263,1.6253,1.62,1.6222,1.622,1.6204,1.6206,1.618,1.6177,1.6172,1.6128,1.612,1.6097,1.6134,1.6016,1.6014,1.6011,1.5991,1.5986,1.5981,0,0,0,0,0,1.6313,1.628,1.6284,1.6276,1.6234,1.6199,1.6193,1.6189,1.6202,1.6185,1.6173,1.6178,1.6105,1.6124,1.6115,1.609,1.6018,1.6014,1.6011,1.5994,1.5987,1.5982,0,0,0,0,0,0,1.6298,1.6277,1.6281,1.624,1.6221,1.6201,1.6179,1.6183,1.6158,1.6161,1.6155,1.6149,1.6107,1.6095,1.6117,1.6043,1.6063,1.6058,1.6053,1.6046,1.6041,1.6044,1.6131,0,0,0,0,0,1.629,1.6266,1.6248,1.6214,1.6204,1.6193,1.6178,1.6176,1.6156,1.6147,1.6132,1.6111,1.6083,1.6064,1.6038,1.599,1.5983,1.5969,1.5964,1.596,1.5954,1.5925,1.5918,1.5998,1.5998,1.5998,0,0,1.6273,1.6259,1.6243,1.621,1.6195,1.6168,1.6186,1.6157,1.6136,1.6142,1.6103,1.6091,1.6066,1.6022,1.6001,1.601,1.5931,1.5955,1.5952,1.5949,1.5921,1.5913,1.5906,1.5996,1.5996,1.5997,0,0,1.6227,1.6215,1.6184,1.6169,1.6147,1.6139,1.6132,1.611,1.6103,1.6064,1.6067,1.6041,1.5994,1.5975,1.5959,1.5905,1.5908,1.5897,1.587,1.5841,1.5835,1.5829,1.5807,1.5799,1.5892,1.5892,1.5892,0,1.6208,1.6169,1.6167,1.6137,1.6121,1.6127,1.6093,1.6078,1.6048,1.6036,1.6047,1.5986,1.597,1.592,1.5906,1.5895,1.5883,1.5899,1.5837,1.5831,1.5825,1.5804,1.5796,1.589,1.5891,1.5891,1.5891,0,1.6145,1.6117,1.6094,1.6066,1.6047,1.6016,1.6007,1.5988,1.5988,1.5978,1.5936,1.5918,1.5886,1.5874,1.5874,1.5823,1.5829,1.5838,1.5857,1.5816,1.5796,1.5788,1.5888,1.5889,1.5889,1.589,0,0,1.6088,1.6058,1.6049,1.6035,1.6011,1.5988,1.5956,1.5926,1.5908,1.5887,1.5858,1.5817,1.5825,1.5807,1.5804,1.578,1.5734,1.5792,1.5791,1.5779,1.5673,1.5664,1.5655,1.5737,1.5735,1.5734,1.5674,0,1.6037,1.5982,1.5979,1.5927,1.5899,1.5905,1.5876,1.5856,1.5847,1.582,1.5809,1.5779,1.5794,1.5783,1.5759,1.5745,1.5712,1.575,1.5706,1.5705,1.571,1.5645,1.5635,1.558,1.5667,1.5665,1.5664,0,1.5972,1.5949,1.5894,1.5872,1.586,1.5835,1.5806,1.5782,1.5759,1.5753,1.5733,1.5733,1.5696,1.5719,1.5667,1.5692,1.5674,1.5664,1.5662,1.5656,1.568,1.5633,1.5562,1.5553,1.5652,1.5653,1.5654,0,1.5931,1.5887,1.5848,1.5836,1.581,1.5791,1.5779,1.5757,1.5739,1.5713,1.5701,1.5671,1.5654,1.563,1.562,1.5638,1.5568,1.559,1.5559,1.5559,1.5542,1.5543,1.5464,1.5536,1.5536,1.5536,1.5536,0,1.5874,1.584,1.5829,1.5805,1.5766,1.5762,1.5723,1.5712,1.5692,1.5664,1.5667,1.564,1.5631,1.5601,1.5594,1.555,1.5543,1.5535,1.5533,1.5533,1.5534,1.552,1.5522,1.5534,1.5534,1.5535,1.5535,0,1.5821,1.5814,1.5771,1.575,1.5743,1.5715,1.5695,1.5671,1.5662,1.5626,1.5617,1.5602,1.5567,1.5556,1.5515,1.5509,1.5457,1.546,1.5465,1.5464,1.5433,1.5435,1.534,1.5326,1.5409,1.5409,1.5408,0,1.5784,1.5758,1.5734,1.5715,1.5703,1.5674,1.5655,1.5649,1.5629,1.56,1.5578,1.5545,1.5517,1.5461,1.5445,1.5412,1.5412,1.5381,1.5407,1.5407,1.5407,1.5408,1.5404,1.5375,1.5374,1.5374,1.5373,0,1.5717,1.5715,1.5689,1.566,1.5638,1.5615,1.5593,1.5577,1.5568,1.5545,1.551,1.5489,1.5446,1.5411,1.5378,1.5363,1.5365,1.5365,1.5356,1.5354,1.5357,1.5352,1.5449,1.5367,1.5367,1.5368,1.5368,1.5369,1.5669,1.5645,1.5624,1.5594,1.5577,1.5555,1.5531,1.5518,1.549,1.5456,1.5454,1.5415,1.539,1.5346,1.5329,1.5297,1.5306,1.5293,1.5289,1.5285,1.5281,1.5365,1.5291,1.5292,1.5292,1.5292,1.5292,0,1.56,1.5586,1.5559,1.5528,1.5503,1.551,1.5486,1.5464,1.5431,1.5408,1.5381,1.534,1.5306,1.5287,1.5252,1.523,1.523,1.522,1.522,1.5216,1.5277,1.5287,1.5221,1.5221,1.5221,1.5221,1.5221,1.5221,1.5561,1.552,1.5514,1.5463,1.545,1.5413,1.5398,1.5377,1.5359,1.5313,1.5285,1.5274,1.5252,1.5215,1.5183,1.5178,1.5164,1.5153,1.5149,1.5205,1.5212,1.5219,1.5228,1.5151,1.5151,1.509,1.5089,1.5089]},{"header":{"parameterUnit":"m.s-1","parameterCategory":1,"la1":30.2991,"la2":30.254,"lo1":-89.0895,"lo2":-89.0444,"dy":0.0017,"dx":0.0017,"nx":28,"ny":28,"refTime":"2024-08-08T03:00:00:Z","depth":0,"parameterNumber":3,"parameterNumberName":"V-component_of_WINDS"},"data":[0,0,0,0,0,0,0,0,0,0,0,0,0,0,0,0,0,0,0,0,0,0,0,0,0,0,0,0,0,0,0,0,0,0,0,0,0,0,0,0,0,0,0,0,0,0,0,0,0,0,0,0,0,0,0,0,0,0,-2.2704,-2.2704,0,-2.2787,-2.2788,-2.2789,-2.277,-2.2769,-2.2767,-2.2766,-2.2847,-2.285,-2.2854,0,0,0,0,0,0,0,0,0,0,0,0,0,-2.2523,-2.2526,-2.2703,-2.2705,-2.2706,-2.2787,-2.2788,-2.2789,-2.2771,-2.2769,-2.2767,-2.2765,-2.2845,-2.285,-2.2854,0,0,0,0,0,0,0,0,0,0,0,0,0,-2.2603,-2.2528,-2.2703,-2.2706,-2.2707,-2.2787,-2.2788,-2.279,-2.2771,-2.2769,-2.2766,-2.2764,-2.2844,-2.2849,-2.2855,-2.2935,0,0,-2.2871,-2.2874,0,0,0,0,0,0,0,0,-2.2599,-2.261,-2.2705,-2.2706,-2.2707,-2.2766,-2.2754,-2.2838,-2.2772,-2.2747,-2.2766,-2.2763,-2.2821,-2.2828,-2.2849,-2.2939,-2.2942,-2.2872,-2.2875,-2.2877,-2.2879,0,0,0,0,0,0,0,-2.2593,-2.2606,-2.2736,-2.2706,-2.2708,-2.2702,-2.2711,-2.277,-2.2796,-2.2749,-2.2747,-2.2758,-2.2822,-2.2844,-2.2851,-2.2944,-2.2871,-2.2876,-2.288,-2.2882,-2.3104,-2.3107,0,0,0,0,0,0,-2.2587,-2.2602,-2.2734,-2.2739,-2.2646,-2.2707,-2.2717,-2.275,-2.2795,-2.28,-2.276,-2.2757,-2.2836,-2.2845,-2.2854,-2.2951,-2.2877,-2.2882,-2.2885,-2.3101,-2.3105,-2.3108,0,0,0,0,0,0,-2.2583,-2.2599,-2.273,-2.267,-2.2687,-2.2713,-2.2749,-2.2752,-2.2775,-2.2804,-2.2808,-2.2778,-2.2834,-2.2846,-2.2916,-2.2954,-2.2885,-2.289,-2.3098,-2.3102,-2.3106,-2.3147,0,0,0,0,0,0,-2.2578,-2.2598,-2.263,-2.2671,-2.269,-2.2792,-2.2752,-2.2756,-2.2785,-2.2782,-2.2822,-2.2827,-2.2833,-2.2908,-2.2921,-2.296,-2.2894,-2.3095,-2.31,-2.3105,-2.3142,-2.3152,-2.316,0,0,0,0,0,-2.2572,-2.2637,-2.2631,-2.2647,-2.273,-2.2794,-2.2805,-2.2813,-2.2788,-2.282,-2.2838,-2.2825,-2.2948,-2.2915,-2.293,-2.2971,-2.3093,-2.3099,-2.3104,-2.3138,-2.315,-2.316,0,0,0,0,0,0,-2.2597,-2.2642,-2.2637,-2.2717,-2.2752,-2.2791,-2.2831,-2.2825,-2.2866,-2.2861,-2.2868,-2.2877,-2.2948,-2.2967,-2.2929,-2.3052,-2.3016,-2.3026,-2.3037,-2.3048,-2.3057,-2.3051,-2.2898,0,0,0,0,0,-2.2612,-2.2662,-2.2698,-2.2765,-2.2784,-2.2805,-2.2833,-2.2836,-2.2872,-2.2886,-2.291,-2.2944,-2.299,-2.302,-2.3064,-2.3145,-2.3153,-2.3181,-2.319,-2.3197,-2.3205,-2.3249,-2.3261,-2.3127,-2.3127,-2.3127,0,0,-2.2643,-2.2674,-2.2705,-2.2771,-2.2799,-2.2849,-2.2817,-2.2871,-2.2908,-2.2894,-2.2961,-2.298,-2.3019,-2.3094,-2.3129,-2.3112,-2.3244,-2.3205,-2.321,-2.3214,-2.3256,-2.3269,-2.328,-2.3131,-2.313,-2.313,0,0,-2.2726,-2.2754,-2.2814,-2.2843,-2.2886,-2.29,-2.2914,-2.2955,-2.2967,-2.3036,-2.3026,-2.3069,-2.3149,-2.3177,-2.3201,-2.3296,-2.3286,-2.331,-2.3356,-2.3399,-2.341,-2.3419,-2.3453,-2.3465,-2.3318,-2.3318,-2.3318,0,-2.2758,-2.2835,-2.2845,-2.2901,-2.293,-2.2922,-2.2981,-2.3009,-2.3063,-2.3083,-2.3064,-2.3164,-2.3189,-2.3271,-2.3295,-2.3315,-2.3331,-2.3305,-2.3408,-2.3417,-2.3426,-2.3458,-2.3471,-2.3321,-2.3321,-2.332,-2.332,0,-2.2873,-2.2926,-2.2969,-2.3024,-2.3059,-2.3116,-2.3133,-2.3166,-2.3167,-2.3183,-2.3252,-2.3283,-2.3333,-2.3353,-2.3353,-2.3436,-2.3424,-2.3406,-2.3371,-2.3442,-2.3472,-2.3484,-2.3325,-2.3324,-2.3323,-2.3322,0,0,-2.2972,-2.3033,-2.3049,-2.3074,-2.3122,-2.3162,-2.3219,-2.3271,-2.3299,-2.3337,-2.3384,-2.3453,-2.3437,-2.3465,-2.3469,-2.3507,-2.358,-2.3485,-2.3486,-2.3501,-2.3672,-2.3684,-2.3698,-2.3574,-2.3576,-2.3578,-2.3668,0,-2.3058,-2.316,-2.3171,-2.3262,-2.3311,-2.3305,-2.3354,-2.3388,-2.3405,-2.3448,-2.3465,-2.3514,-2.349,-2.3507,-2.3544,-2.3563,-2.3614,-2.3557,-2.3616,-2.3618,-2.3606,-2.3714,-2.3727,-2.3811,-2.368,-2.3682,-2.3684,0,-2.3172,-2.3216,-2.3312,-2.3354,-2.3375,-2.342,-2.3468,-2.351,-2.3548,-2.3557,-2.359,-2.3589,-2.3646,-2.361,-2.3689,-2.365,-2.3675,-2.3688,-2.3691,-2.3696,-2.3655,-2.3721,-2.3838,-2.385,-2.3702,-2.3701,-2.37,0,-2.3234,-2.3317,-2.3386,-2.3407,-2.3458,-2.349,-2.3512,-2.3548,-2.3579,-2.362,-2.364,-2.3687,-2.3713,-2.3749,-2.376,-2.3733,-2.3839,-2.3803,-2.3847,-2.3847,-2.3869,-2.3867,-2.399,-2.3886,-2.3886,-2.3886,-2.3886,0,-2.3329,-2.3388,-2.3414,-2.3456,-2.3522,-2.3534,-2.3598,-2.3619,-2.3651,-2.3696,-2.3693,-2.3735,-2.3748,-2.3792,-2.3802,-2.3866,-2.3877,-2.3885,-2.3887,-2.3885,-2.3884,-2.3901,-2.3895,-2.3889,-2.3888,-2.3888,-2.3887,0,-2.3408,-2.3429,-2.3503,-2.3546,-2.3558,-2.3605,-2.364,-2.368,-2.3697,-2.3754,-2.3768,-2.3793,-2.3845,-2.3861,-2.3922,-2.3928,-2.4003,-2.4,-2.3991,-2.3991,-2.4033,-2.4029,-2.4171,-2.419,-2.4074,-2.4076,-2.4076,0,-2.3467,-2.3513,-2.3561,-2.3592,-2.3616,-2.3666,-2.3698,-2.3711,-2.3744,-2.3792,-2.3826,-2.3878,-2.392,-2.4003,-2.4026,-2.4073,-2.407,-2.4117,-2.4077,-2.4074,-2.407,-2.4067,-2.4071,-2.4124,-2.4125,-2.4126,-2.4127,0,-2.3569,-2.3577,-2.3624,-2.3675,-2.3713,-2.3753,-2.3792,-2.3817,-2.3836,-2.3873,-2.3927,-2.396,-2.4024,-2.4075,-2.4123,-2.4145,-2.4139,-2.414,-2.4152,-2.415,-2.4143,-2.4147,-2.401,-2.4136,-2.4135,-2.4134,-2.4134,-2.4133,-2.364,-2.368,-2.3721,-2.3773,-2.3804,-2.3841,-2.3881,-2.3903,-2.3949,-2.4004,-2.4009,-2.4067,-2.4105,-2.4169,-2.4193,-2.4238,-2.4225,-2.4243,-2.4247,-2.4251,-2.4255,-2.4137,-2.4247,-2.4247,-2.4247,-2.4247,-2.4246,0,-2.3741,-2.3767,-2.3816,-2.3871,-2.3912,-2.3905,-2.3948,-2.3982,-2.4034,-2.4071,-2.4113,-2.4175,-2.4225,-2.4253,-2.4302,-2.4333,-2.4331,-2.4345,-2.4343,-2.4348,-2.4264,-2.4249,-2.4346,-2.4346,-2.4346,-2.4346,-2.4346,-2.4346,-2.3798,-2.3867,-2.388,-2.3963,-2.3989,-2.4048,-2.4073,-2.4106,-2.4135,-2.4206,-2.4248,-2.4267,-2.4299,-2.4352,-2.4397,-2.4404,-2.4422,-2.4437,-2.4442,-2.4364,-2.4353,-2.4344,-2.4329,-2.4441,-2.4441,-2.4522,-2.4522,-2.4523]}]]